Location: Korczew
(51.3586°N, 19.4491°E)
Time: 08:16:08
(UTC+00:00)

Cosmos 2219 Rocket - Pass Details

Date: 19 May 2025
Orbit: 828 x 844 km, 71.0° (Epoch: 16 June)

Event Time Altitude Azimuth Distance (km) Brightness Sun altitude
Rises 22:20:33 0° 330° (NNW) 3,401 6.5 -18.6°
Reaches altitude 10° 22:23:03 10° 334° (NNW) 2,460 5.7 -18.6°
Maximum altitude 22:28:38 60° 55° (NE) 953 2.6 -18.6°
Enters shadow 22:32:31 20° 130° (SE) 1,845 3.6 -18.6°
